Location: Dittelbrunn
(50.0738°N, 10.2196°E)
Time: 12:59:21
(UTC+00:00)

Cosmos 1975 - Pass Details

Date: 18 September 2020
Orbit: 541 x 562 km, 82.5° (Epoch: 21 October)

Event Time Altitude Azimuth Distance (km) Brightness Sun altitude
Rises 18:44:49 0° 207° (SSW) 2,745 6.5 -13.3°
Reaches altitude 10° 18:47:05 10° 215° (SW) 1,853 5.7 -13.7°
Maximum altitude 18:50:57 41° 286° (WNW) 831 4.3 -14.3°
Drops below altitude 10° 18:54:51 10° 357° (N) 1,862 5.8 -14.8°
Sets 18:57:08 0° 5° (N) 2,760 6.6 -15.2°
